[[{"header":{"parameterUnit":"m.s-1","parameterCategory":1,"la1":30.2991,"la2":30.254,"lo1":-89.0895,"lo2":-89.0444,"dy":0.0017,"dx":0.0017,"nx":28,"ny":28,"refTime":"2025-12-27T09:00:00:Z","depth":0,"parameterNumber":2,"parameterNumberName":"U-component_of_WINDS"},"data":[0,0,0,0,0,0,0,0,0,0,0,0,0,0,0,0,0,0,0,0,0,0,0,0,0,0,0,0,0,0,0,0,0,0,0,0,0,0,0,0,0,0,0,0,0,0,0,0,0,0,0,0,0,0,0,0,0,0,0.9732,0.9733,0,0.9809,0.981,0.9811,0.9806,0.9805,0.9803,0.9802,0.9884,0.9887,0.989,0,0,0,0,0,0,0,0,0,0,0,0,0,0.9584,0.9587,0.9732,0.9733,0.9734,0.9809,0.981,0.9811,0.9806,0.9805,0.9803,0.9802,0.9883,0.9887,0.989,0,0,0,0,0,0,0,0,0,0,0,0,0,0.9653,0.9588,0.9732,0.974,0.9742,0.9808,0.981,0.9811,0.9806,0.9805,0.9803,0.9801,0.9881,0.9886,0.9891,0.9955,0,0,0.9906,0.9908,0,0,0,0,0,0,0,0,0.9649,0.9659,0.9738,0.974,0.9742,0.9796,0.9787,0.9859,0.9807,0.9782,0.9802,0.98,0.9856,0.9863,0.9881,0.9958,0.9962,0.9906,0.9909,0.9911,0.9912,0,0,0,0,0,0,0,0.9645,0.9655,0.9762,0.9739,0.9742,0.9741,0.9749,0.9801,0.9828,0.9784,0.9784,0.9793,0.9857,0.9876,0.9883,0.9963,0.9906,0.991,0.9913,0.9915,1.0097,1.0099,0,0,0,0,0,0,0.9637,0.9651,0.976,0.9765,0.969,0.9745,0.9754,0.978,0.9827,0.9833,0.9794,0.9792,0.9869,0.9877,0.9886,0.9964,0.9911,0.9916,0.9918,1.0095,1.0098,1.01,0,0,0,0,0,0,0.9634,0.9647,0.9757,0.9708,0.9722,0.975,0.9779,0.9783,0.9802,0.9835,0.984,0.9809,0.9868,0.9879,0.9937,0.9966,0.9918,0.9922,1.0093,1.0096,1.0099,1.012,0,0,0,0,0,0,0.963,0.9646,0.967,0.9709,0.9725,0.9807,0.9781,0.9785,0.981,0.9809,0.985,0.9855,0.9868,0.993,0.9942,0.9972,0.9926,1.009,1.0094,1.0098,1.0117,1.0123,1.0129,0,0,0,0,0,0.9625,0.9673,0.9671,0.9684,0.9755,0.9808,0.9817,0.983,0.9813,0.9837,0.9858,0.9854,0.9961,0.9936,0.995,0.9982,1.0089,1.0093,1.0097,1.0114,1.0122,1.0128,0,0,0,0,0,0,0.9638,0.9679,0.9677,0.9739,0.977,0.9807,0.9839,0.9837,0.9875,0.9872,0.9886,0.9895,0.9954,0.9974,0.9945,1.0046,1.0023,1.003,1.0031,1.0039,1.0044,1.0039,0.993,0,0,0,0,0,0.9648,0.9687,0.9721,0.9773,0.9788,0.9811,0.9834,0.9841,0.9874,0.9888,0.9913,0.9946,0.9987,1.0014,1.0054,1.0119,1.0129,1.0148,1.0154,1.0159,1.0165,1.0201,1.021,1.0114,1.0114,1.0114,0,0,0.967,0.9697,0.972,0.9776,0.9801,0.9842,0.9822,0.9866,0.9897,0.9895,0.9951,0.9971,1.0009,1.0071,1.01,1.0089,1.0194,1.0164,1.0168,1.0171,1.0207,1.0216,1.0224,1.0117,1.0116,1.0116,0,0,0.9729,0.9754,0.9799,0.9825,0.9862,0.9877,0.9888,0.9926,0.9938,0.9995,0.9994,1.0032,1.0102,1.0129,1.0152,1.0223,1.0221,1.0235,1.0267,1.0302,1.031,1.0316,1.0342,1.0351,1.0241,1.0241,1.0242,0,0.9752,0.9812,0.9823,0.9868,0.9893,0.9892,0.9939,0.9963,1.0012,1.003,1.0017,1.0105,1.0131,1.02,1.0217,1.0235,1.0249,1.0231,1.0307,1.0314,1.0321,1.0345,1.0355,1.0243,1.0243,1.0243,1.0243,0,0.9838,0.988,0.9913,0.9959,0.9988,1.0033,1.0052,1.008,1.0084,1.01,1.0158,1.0189,1.0235,1.0252,1.0257,1.0322,1.0314,1.0304,1.0281,1.0331,1.0355,1.0364,1.0245,1.0245,1.0244,1.0244,0,0,0.9908,0.996,0.9972,0.9993,1.0035,1.0068,1.0114,1.0158,1.0182,1.0216,1.0255,1.0314,1.0306,1.0332,1.034,1.0371,1.0425,1.0358,1.0359,1.0369,1.0499,1.0506,1.0516,1.0424,1.0426,1.0427,1.0496,0,0.9972,1.0052,1.0064,1.0135,1.0175,1.0175,1.0215,1.0245,1.0262,1.0298,1.0317,1.0359,1.0344,1.036,1.0391,1.0412,1.0451,1.0407,1.0461,1.0463,1.0451,1.0528,1.0536,1.0598,1.0505,1.0506,1.0507,0,1.0057,1.0093,1.0168,1.0204,1.0221,1.0257,1.0298,1.0333,1.0368,1.0378,1.0407,1.0411,1.046,1.0435,1.0502,1.0472,1.0495,1.0508,1.0511,1.0517,1.0488,1.0536,1.0619,1.0628,1.0522,1.052,1.0519,0,1.0101,1.0168,1.0221,1.0239,1.0283,1.0309,1.0328,1.0361,1.0387,1.0424,1.0441,1.0483,1.0506,1.0539,1.0554,1.0535,1.0621,1.0597,1.0631,1.063,1.0649,1.0647,1.0736,1.0664,1.0663,1.0663,1.0663,0,1.0171,1.0217,1.0241,1.0274,1.0326,1.0339,1.039,1.0409,1.0439,1.0476,1.0479,1.0514,1.0533,1.0571,1.0584,1.0637,1.0648,1.0658,1.066,1.0657,1.0656,1.0672,1.0668,1.0666,1.0665,1.0665,1.0664,0,1.0228,1.0247,1.0305,1.0342,1.0352,1.0388,1.042,1.0453,1.0469,1.0516,1.0528,1.0554,1.0599,1.0618,1.0673,1.0682,1.0744,1.0743,1.0732,1.0732,1.0765,1.0762,1.0868,1.0882,1.08,1.0801,1.0801,0,1.0272,1.0307,1.0347,1.0372,1.0392,1.0432,1.0459,1.0473,1.0501,1.0543,1.0571,1.0615,1.0652,1.0724,1.0748,1.0791,1.0791,1.0826,1.0798,1.0793,1.0792,1.0789,1.0793,1.0831,1.0832,1.0832,1.0833,0,1.0347,1.0354,1.0391,1.0432,1.0463,1.0496,1.0528,1.0549,1.0569,1.0599,1.0645,1.0673,1.073,1.0774,1.0818,1.0839,1.084,1.0841,1.0851,1.0848,1.084,1.0845,1.0745,1.0839,1.0838,1.0838,1.0837,1.0837,1.0399,1.043,1.0463,1.0505,1.053,1.0561,1.0593,1.0613,1.0651,1.0697,1.0704,1.0753,1.0788,1.0847,1.0869,1.0908,1.09,1.0914,1.0918,1.0921,1.0923,1.0834,1.0917,1.0916,1.0916,1.0916,1.0916,0,1.0474,1.0495,1.0533,1.0578,1.0611,1.0608,1.0643,1.0671,1.0714,1.0746,1.0781,1.0834,1.0877,1.0905,1.0949,1.0975,1.0976,1.0986,1.0984,1.0989,1.0928,1.0915,1.0984,1.0984,1.0984,1.0984,1.0984,1.0984,1.0516,1.0569,1.0581,1.0646,1.0668,1.0715,1.0736,1.0764,1.0789,1.0847,1.0883,1.0901,1.0931,1.0978,1.1017,1.1024,1.104,1.1051,1.1057,1.1,1.0993,1.0986,1.0974,1.1054,1.1054,1.1114,1.1115,1.1115]},{"header":{"parameterUnit":"m.s-1","parameterCategory":1,"la1":30.2991,"la2":30.254,"lo1":-89.0895,"lo2":-89.0444,"dy":0.0017,"dx":0.0017,"nx":28,"ny":28,"refTime":"2025-12-27T09:00:00:Z","depth":0,"parameterNumber":3,"parameterNumberName":"V-component_of_WINDS"},"data":[0,0,0,0,0,0,0,0,0,0,0,0,0,0,0,0,0,0,0,0,0,0,0,0,0,0,0,0,0,0,0,0,0,0,0,0,0,0,0,0,0,0,0,0,0,0,0,0,0,0,0,0,0,0,0,0,0,0,1.2776,1.2777,0,1.2799,1.2799,1.28,1.2806,1.2806,1.2806,1.2805,1.2827,1.2828,1.2829,0,0,0,0,0,0,0,0,0,0,0,0,0,1.2736,1.2736,1.2776,1.2777,1.2777,1.2799,1.2799,1.28,1.2806,1.2806,1.2806,1.2805,1.2827,1.2828,1.2829,0,0,0,0,0,0,0,0,0,0,0,0,0,1.2755,1.2737,1.2776,1.2783,1.2783,1.2799,1.2799,1.28,1.2806,1.2806,1.2805,1.2805,1.2827,1.2828,1.2829,1.2839,0,0,1.2832,1.2832,0,0,0,0,0,0,0,0,1.2754,1.2757,1.2781,1.2782,1.2783,1.28,1.2793,1.2813,1.2806,1.2797,1.2805,1.2805,1.2818,1.282,1.2824,1.284,1.2841,1.2832,1.2833,1.2833,1.2833,0,0,0,0,0,0,0,1.2753,1.2756,1.2785,1.2782,1.2783,1.2784,1.2786,1.2797,1.2808,1.2798,1.2799,1.2801,1.2818,1.2823,1.2825,1.2841,1.2832,1.2833,1.2834,1.2834,1.2866,1.2866,0,0,0,0,0,0,1.2751,1.2755,1.2785,1.2786,1.2768,1.2784,1.2787,1.2794,1.2808,1.281,1.2801,1.2801,1.2822,1.2824,1.2826,1.2839,1.2833,1.2834,1.2835,1.2866,1.2866,1.2866,0,0,0,0,0,0,1.275,1.2753,1.2784,1.2771,1.2774,1.2785,1.2793,1.2795,1.28,1.2811,1.2813,1.2805,1.2822,1.2824,1.2836,1.284,1.2835,1.2836,1.2866,1.2866,1.2866,1.2865,0,0,0,0,0,0,1.2749,1.2753,1.2758,1.2771,1.2775,1.2794,1.2794,1.2796,1.2802,1.2802,1.2814,1.2816,1.2822,1.2834,1.2837,1.2841,1.2836,1.2865,1.2866,1.2866,1.2865,1.2865,1.2865,0,0,0,0,0,1.2747,1.2756,1.2758,1.2761,1.2781,1.2794,1.2797,1.2803,1.2802,1.2807,1.2814,1.2816,1.2839,1.2835,1.2838,1.2843,1.2865,1.2866,1.2866,1.2864,1.2865,1.2865,0,0,0,0,0,0,1.2743,1.2758,1.276,1.2774,1.2783,1.2795,1.2801,1.2804,1.2813,1.2813,1.282,1.2823,1.2834,1.2839,1.2835,1.2853,1.2852,1.2853,1.2849,1.285,1.285,1.2849,1.2837,0,0,0,0,0,1.2744,1.2753,1.2766,1.2776,1.2781,1.279,1.2796,1.28,1.281,1.2813,1.2821,1.283,1.2839,1.2845,1.2854,1.2865,1.2868,1.287,1.287,1.287,1.2871,1.2877,1.2878,1.2868,1.2868,1.2868,0,0,1.2745,1.2754,1.276,1.2776,1.2783,1.2793,1.2793,1.2803,1.281,1.2815,1.2826,1.2832,1.2842,1.2854,1.2859,1.2859,1.2875,1.2871,1.2871,1.2872,1.2878,1.2879,1.288,1.2868,1.2868,1.2868,0,0,1.2752,1.2761,1.277,1.2778,1.2789,1.2795,1.2798,1.281,1.2814,1.2826,1.2829,1.2837,1.2852,1.2859,1.2865,1.2874,1.2876,1.2876,1.2879,1.2885,1.2886,1.2886,1.2889,1.289,1.2877,1.2877,1.2877,0,1.2753,1.2768,1.2775,1.2785,1.2791,1.2796,1.2805,1.2812,1.2826,1.283,1.2829,1.2848,1.2855,1.2868,1.2871,1.2875,1.2877,1.2875,1.2885,1.2886,1.2887,1.2889,1.2891,1.2877,1.2877,1.2877,1.2877,0,1.2767,1.2777,1.2784,1.2797,1.2804,1.2814,1.2822,1.2828,1.2831,1.2837,1.2848,1.2857,1.2867,1.2871,1.2874,1.2884,1.2883,1.2884,1.2882,1.2887,1.289,1.2891,1.2877,1.2877,1.2877,1.2877,0,0,1.2774,1.279,1.2793,1.2799,1.2811,1.2819,1.2828,1.2839,1.2844,1.2852,1.286,1.2873,1.2873,1.2879,1.2883,1.2888,1.2895,1.2888,1.2888,1.2889,1.2906,1.2905,1.2907,1.2896,1.2896,1.2896,1.2905,0,1.2783,1.28,1.2807,1.2821,1.283,1.2834,1.2842,1.285,1.2855,1.2863,1.2869,1.2878,1.2878,1.2881,1.2887,1.2893,1.2898,1.2892,1.2903,1.2903,1.29,1.2908,1.2908,1.2916,1.2906,1.2906,1.2906,0,1.2796,1.2806,1.2821,1.2832,1.2836,1.2843,1.2853,1.286,1.2869,1.2873,1.2879,1.2883,1.2892,1.289,1.2902,1.2898,1.2902,1.2906,1.2906,1.2907,1.2905,1.291,1.2918,1.2919,1.2908,1.2908,1.2908,0,1.2799,1.2815,1.2827,1.2831,1.2844,1.2849,1.2855,1.2863,1.2869,1.2878,1.2881,1.289,1.2895,1.2902,1.2908,1.2906,1.2919,1.2918,1.2922,1.2922,1.2925,1.2925,1.2934,1.2927,1.2927,1.2927,1.2927,0,1.2809,1.2818,1.2828,1.2835,1.2845,1.2851,1.2861,1.2866,1.2874,1.2881,1.2885,1.2892,1.2899,1.2906,1.291,1.292,1.2922,1.2924,1.2925,1.2924,1.2924,1.2927,1.2927,1.2928,1.2928,1.2928,1.2927,0,1.2814,1.2822,1.2834,1.2845,1.2848,1.2855,1.2864,1.287,1.2875,1.2885,1.2887,1.2895,1.2904,1.291,1.2921,1.2924,1.2934,1.2935,1.2931,1.2932,1.2936,1.2935,1.2948,1.295,1.2942,1.2942,1.2942,0,1.282,1.2828,1.2839,1.2845,1.285,1.2859,1.2865,1.2871,1.2877,1.2887,1.2892,1.2901,1.2909,1.2923,1.2929,1.2938,1.2939,1.2943,1.294,1.2938,1.2939,1.2938,1.2939,1.2943,1.2943,1.2943,1.2943,0,1.283,1.2833,1.2842,1.2852,1.2859,1.2867,1.2874,1.2878,1.2886,1.2892,1.2901,1.2907,1.2919,1.2927,1.2936,1.2941,1.2943,1.2944,1.2945,1.2944,1.2942,1.2943,1.2932,1.2944,1.2944,1.2944,1.2944,1.2944,1.2836,1.2843,1.2852,1.2861,1.2867,1.2875,1.2881,1.2887,1.2895,1.2905,1.2908,1.2917,1.2925,1.2937,1.2942,1.2949,1.2949,1.2951,1.2951,1.2952,1.2952,1.2941,1.2951,1.2951,1.2951,1.2951,1.2951,0,1.2846,1.2852,1.2861,1.2872,1.2879,1.288,1.2889,1.2894,1.2903,1.291,1.2917,1.2928,1.2936,1.2943,1.2951,1.2955,1.2956,1.2957,1.2957,1.2958,1.2952,1.295,1.2956,1.2956,1.2956,1.2956,1.2956,1.2956,1.2852,1.2863,1.2867,1.288,1.2886,1.2896,1.29,1.2907,1.2912,1.2924,1.2931,1.2935,1.2942,1.2951,1.2958,1.296,1.2963,1.2964,1.2965,1.2959,1.2959,1.2958,1.2956,1.2964,1.2964,1.2971,1.2971,1.2971]}]]